Location: Appeville
(49.3218°N, 1.3427°W)
Time: 14:43:20
(UTC+00:00)

Meteor 1-19 Rocket - Pass Details

Date: 08 December 2019
Orbit: 816 x 918 km, 81.2° (Epoch: 25 January)

Event Time Altitude Azimuth Distance (km) Brightness Sun altitude
Exits shadow 06:15:34 - 345° (NNW) 3,271 6.9 -14.1°
Reaches altitude 10° 06:17:44 10° 342° (NNW) 2,431 6.2 -13.8°
Maximum altitude 06:23:09 63° 263° (W) 925 4.2 -13.0°
Drops below altitude 10° 06:28:38 10° 183° (S) 2,461 6.8 -12.1°
Sets 06:31:05 0° 180° (S) 3,407 7.6 -11.7°
